DW7733 Weather Reports


Display with metric or nautical units.
time (UTC)temp
F
wind
direction
speed
MPH
gust
MPH
rain 1hr
in
rain 24hr
in
rain mn
in
humidity
%
barometer
mb
20260508074514 42 190 0.0 1.0 0.00 0.00 0.00 84 1010.8
20260508073013 43 191 0.0 1.0 0.00 0.00 0.00 82 1010.8
20260508071514 44 155 0.0 1.0 0.00 0.00 0.00 82 1010.9
20260508070008 45 226 4.0 9.0 0.00 0.00 0.00 78 1011.1
20260508064507 45 252 8.0 11.0 0.00 0.00 0.00 77 1011.3
20260508063005 45 255 11.0 12.0 0.00 0.00 0.00 77 1011.7
20260508061504 45 257 13.0 18.0 0.00 0.00 0.00 76 1011.7
20260508060001 45 276 10.0 18.0 0.00 0.00 0.00 74 1011.7
20260508054642 43 245 0.0 5.0 0.00 0.00 0.00 78 1011.8
20260508053058 42 134 0.0 1.0 0.00 0.00 0.00 80 1011.5
20260508051555 43 156 0.0 1.0 0.00 0.00 0.00 78 1011.9
20260508050054 44 146 0.0 1.0 0.00 0.00 0.00 78 1011.9
20260508044553 46 189 2.0 9.0 0.00 0.00 0.00 73 1011.8
20260508043057 46 266 7.0 9.0 0.00 0.00 0.00 72 1011.9
20260508041551 45 252 9.0 10.0 0.00 0.00 0.00 75 1011.9
20260508040043 43 195 2.0 9.0 0.00 0.00 0.00 71 1012.0
20260508034549 40 173 0.0 3.0 0.00 0.00 0.00 78 1012.2
20260508033042 40 136 0.0 0.0 0.00 0.00 0.00 81 1012.1
20260508031543 39 135 0.0 0.0 0.00 0.00 0.00 80 1011.9
20260508030044 39 134 0.0 0.0 0.00 0.00 0.00 79 1011.9
20260508024544 39 134 0.0 0.0 0.00 0.00 0.00 80 1012.0
20260508023041 39 134 0.0 0.0 0.00 0.00 0.00 80 1011.9
20260508021541 39 134 0.0 0.0 0.00 0.00 0.00 78 1011.9
20260508020045 39 134 0.0 0.0 0.00 0.00 0.00 79 1011.9
20260508014540 40 134 0.0 0.0 0.00 0.00 0.00 77 1011.9
20260508013039 40 132 0.0 0.0 0.00 0.00 0.00 76 1011.7
20260508011539 41 132 0.0 0.0 0.00 0.00 0.00 73 1011.4
20260508010047 42 132 0.0 1.0 0.00 0.00 0.00 72 1011.3
20260508004537 44 122 0.0 2.0 0.00 0.00 0.00 68 1011.3
20260508003039 45 129 0.0 4.0 0.00 0.00 0.00 66 1011.3
20260508001536 46 43 4.0 6.0 0.00 0.00 0.00 66 1011.3
20260508000035 45 16 5.0 6.0 0.00 0.00 0.00 62 1011.3
20260507234535 46 33 6.0 8.0 0.00 0.00 0.00 61 1011.4
20260507233034 46 28 6.0 8.0 0.00 0.00 0.00 64 1011.2
20260507231541 46 29 7.0 9.0 0.00 0.00 0.00 61 1011.3
20260507230039 46 23 8.0 9.0 0.00 0.00 0.00 63 1011.2
20260507224532 46 33 7.0 8.0 0.00 0.00 0.00 62 1011.4
20260507223029 46 33 8.0 10.0 0.00 0.00 0.00 69 1011.4
20260507221529 46 19 9.0 10.0 0.00 0.00 0.00 67 1011.4
20260507220026 45 20 9.0 11.0 0.00 0.00 0.00 70 1011.4
20260507214524 45 18 7.0 9.0 0.00 0.00 0.00 73 1011.5
20260507213024 45 13 8.0 10.0 0.00 0.00 0.00 74 1011.3
20260507211534 45 19 9.0 11.0 0.00 0.00 0.00 73 1011.3
20260507210022 45 15 9.0 11.0 0.00 0.00 0.00 74 1011.4
20260507204523 45 15 10.0 11.0 0.00 0.00 0.00 74 1011.2
20260507203027 44 16 10.0 11.0 0.00 0.00 0.00 74 1011.2
20260507201520 44 13 10.0 14.0 0.00 0.00 0.00 75 1011.2
20260507200021 44 22 10.0 12.0 0.00 0.00 0.00 73 1011.3
20260507194518 44 28 11.0 12.0 0.00 0.00 0.00 77 1011.3
20260507193015 44 21 12.0 14.0 0.00 0.00 0.00 79 1011.5
20260507191515 44 13 12.0 14.0 0.00 0.00 0.00 78 1011.7
20260507190018 44 9 9.0 12.0 0.00 0.00 0.00 79 1011.6
20260507184514 44 1 10.0 12.0 0.00 0.00 0.00 75 1011.6
20260507183033 44 16 10.0 12.0 0.00 0.00 0.00 77 1011.6
20260507181513 44 358 8.0 10.0 0.00 0.00 0.00 74 1011.6
20260507180012 44 359 9.0 11.0 0.00 0.00 0.00 77 1011.7
20260507174512 45 1 6.0 7.0 0.00 0.00 0.00 74 1011.6
20260507173008 45 9 4.0 6.0 0.00 0.00 0.00 73 1011.8
20260507171507 45 26 6.0 7.0 0.00 0.00 0.00 75 1011.9
20260507170005 45 353 6.0 8.0 0.00 0.00 0.00 78 1012.1
20260507164506 44 358 6.0 7.0 0.00 0.00 0.00 76 1012.3
20260507163005 44 354 4.0 6.0 0.00 0.00 0.00 76 1012.3
20260507161505 44 5 5.0 6.0 0.00 0.00 0.00 76 1012.5
20260507160009 44 341 4.0 6.0 0.00 0.00 0.00 77 1012.5
20260507154503 44 359 3.0 6.0 0.00 0.00 0.00 79 1012.5
20260507153004 44 11 4.0 6.0 0.00 0.00 0.00 81 1012.5
20260507151503 44 347 4.0 5.0 0.00 0.00 0.00 80 1012.4
20260507150003 43 4 3.0 5.0 0.00 0.00 0.00 81 1012.4
20260507144600 43 353 3.0 4.0 0.00 0.00 0.00 82 1012.5
20260507143059 43 360 3.0 6.0 0.00 0.00 0.00 82 1012.5
20260507141601 43 352 1.0 4.0 0.00 0.00 0.00 80 1012.6
20260507140107 42 16 0.0 4.0 0.00 0.00 0.00 80 1012.7
20260507134558 42 356 2.0 4.0 0.00 0.00 0.00 80 1012.7
20260507133104 42 32 3.0 4.0 0.00 0.00 0.00 81 1012.8
20260507131557 42 25 1.0 2.0 0.00 0.00 0.00 80 1012.9
20260507130107 41 32 0.0 3.0 0.00 0.00 0.00 80 1012.8
20260507124633 40 40 0.0 2.0 0.00 0.00 0.00 81 1012.8
20260507123056 40 43 0.0 4.0 0.00 0.00 0.00 81 1012.9
20260507121555 39 53 1.0 6.0 0.00 0.00 0.00 80 1012.9
20260507120054 39 37 2.0 7.0 0.00 0.00 0.00 81 1012.8
20260507114610 38 40 1.0 7.0 0.00 0.00 0.00 80 1012.7
20260507113055 37 123 0.0 2.0 0.00 0.00 0.00 80 1012.4
20260507111551 37 134 0.0 1.0 0.00 0.00 0.00 82 1012.2
20260507110050 36 134 0.0 1.0 0.00 0.00 0.00 83 1012.0
20260507104555 35 143 0.0 2.0 0.00 0.00 0.00 84 1012.0
20260507103049 35 133 0.0 1.0 0.00 0.00 0.00 84 1011.9
20260507101550 35 136 0.0 1.0 0.00 0.00 0.00 85 1011.9
20260507100046 34 138 0.0 2.0 0.00 0.00 0.00 85 1011.9
20260507094544 35 138 0.0 1.0 0.00 0.00 0.00 84 1011.8
20260507093043 35 143 0.0 1.0 0.00 0.00 0.00 84 1012.0
20260507091544 35 143 0.0 1.0 0.00 0.00 0.00 83 1012.0
20260507090038 35 131 0.0 1.0 0.00 0.00 0.00 82 1011.9
20260507084535 36 134 0.0 1.0 0.00 0.00 0.00 80 1011.9
20260507083032 37 148 0.0 2.0 0.00 0.00 0.00 78 1012.0
20260507081530 37 136 0.0 1.0 0.00 0.00 0.00 76 1011.9
20260507080026 38 139 0.0 1.0 0.00 0.00 0.00 74 1011.9